TIANMU-1 22 (58663 NORAD) Tracking and Keplerian Element Data

This shows tracking and keplerian element data for the satellite.

Feedback or suggestion? Click here.




ElementValue
Catalog58663
NameTIANMU-1 22
Epoch Orbit256
Epoch Day13.1775735
Epoch Year2024
RAAN129.8664
Inclination97.3992
Eccentricity0.0010197
Argument of Perigee204.4944
Mean Anonmoly155.5805
Mean Motion15.14493384
Decay Rate8.211E-05
L11 58663U 23208D 24013.17757350 .00008211 00000+0 44887-3 0 9993
L22 58663 97.3992 129.8664 0010197 204.4944 155.5805 15.14493384 2564



Live tracking and technical data element details for TIANMU-1 22 (NORAD 58663). TIANMU-1 22 can be tracked NOW for your location showing map with azimuth and elevation plus other details from your city location.







IsCatalogInMostPopularTable: catalog: 58663, numindb: 23
Update: records affected: 1



GetName: 58663 TIANMU-1 22

Hit Count: updated at: Wed, 17 Apr 2024 02:20:05 GMT